Find Starlink 30911

NORAD ID: 58374 Int'l Des: 2023-178 Owner: SPXS Country: US Constellation: starlink operational
LEOCIRCULAR

Current View

Loading 3D Globe...

About Starlink 30911

Starlink 30911 (NORAD 58374) is a starlink constellation satellite (v2 mini) launched Nov 20, 2023 by SPXS of US. It operates in LEO, CIRCULAR orbit with a mass of 730.00 kg.

About Starlink 30911

Description loading...

Upcoming Passes

Passes for default location (London). Set your location on the main map for personalized predictions.

Altitude History

Loading altitude history...

Two-Line Element Set

1 58374U 23178A 26177.79049151 .00002975 00000-0 99126-4 0 9991
2 58374 53.1563 212.2947 0000837 87.0130 273.0968 15.34406148146615
Epoch: Jun 26, 2026 • Age: 12 hours

Current Status

Altitude 464.0 km
Velocity 7.64 km/s
Sub-Earth Point 29.56°N, 8.31°W
Launch Date Nov 20, 2023
Age 2.5 years
Type internet

Technical Details

Classification Payload
Mass 730.00 kg
Dry Mass 700.00 kg
Total Mass 730.00 kg
Length 0.30 m
Diameter 4.10 m
Span 29.00 m
Shape Box + pan
Manufacturer SPXS
Bus Type Starlink V2M
Phase Status In Orbit
Owner/State SPXS/US

Most Searched